QPF
0.10 0.05 0.06 0.07 0.07 0.05 0.06 0.05 0.05 0.06 0.06 0.06 0.07 0.07 0.08 0.09 0.10 0.12 0.12 0.10 0.10 0.11 0.12 0.11 0.07 0.05 0.06 0.05 0.07 0.07 0.05 0.05 0.06 0.05 0.03 0.02 0.03 0.03 0.03 0.05 0.11 0.12 0.16
0.05 0.04 0.05 0.06 0.07 0.07 0.06 0.05 0.05 0.05 0.05 0.06 0.07 0.07 0.08 0.07 0.07 0.09 0.09 0.08 0.09 0.11 0.13 0.11 0.11 0.08 0.08 0.07 0.07 0.05 0.04 0.04 0.06 0.06 0.05 0.04 0.03 0.03 0.03 0.03 0.05 0.05 0.09
0.02 0.03 0.05 0.06 0.07 0.08 0.07 0.07 0.07 0.05 0.05 0.05 0.05 0.05 0.06 0.06 0.06 0.07 0.08 0.09 0.09 0.08 0.08 0.09 0.09 0.08 0.08 0.06 0.06 0.06 0.06 0.05 0.05 0.07 0.09 0.10 0.06 0.03 0.04 0.03 0.04 0.06 0.06
0.02 0.03 0.03 0.06 0.06 0.06 0.05 0.07 0.08 0.06 0.05 0.05 0.04 0.04 0.05 0.05 0.07 0.08 0.08 0.10 0.09 0.08 0.08 0.08 0.07 0.07 0.06 0.06 0.07 0.07 0.06 0.05 0.07 0.09 0.10 0.10 0.08 0.04 0.04 0.05 0.05 0.06 0.07
0.03 0.03 0.03 0.04 0.05 0.05 0.05 0.05 0.06 0.06 0.06 0.05 0.04 0.04 0.04 0.04 0.06 0.07 0.09 0.09 0.08 0.09 0.08 0.07 0.06 0.06 0.07 0.06 0.07 0.08 0.06 0.06 0.08 0.09 0.10 0.11 0.09 0.09 0.06 0.06 0.07 0.07 0.06
0.02 0.02 0.02 0.04 0.04 0.04 0.04 0.04 0.04 0.05 0.05 0.06 0.06 0.06 0.05 0.04 0.05 0.07 0.06 0.06 0.07 0.08 0.09 0.08 0.07 0.05 0.06 0.06 0.07 0.09 0.08 0.08 0.08 0.07 0.09 0.12 0.11 0.10 0.07 0.10 0.10 0.06 0.06
0.01 0.02 0.02 0.04 0.04 0.04 0.05 0.05 0.05 0.04 0.03 0.04 0.04 0.04 0.04 0.04 0.05 0.05 0.04 0.05 0.07 0.08 0.09 0.09 0.08 0.06 0.05 0.06 0.07 0.09 0.08 0.07 0.05 0.06 0.08 0.08 0.10 0.14 0.10 0.14 0.11 0.06 0.06
0.01 0.02 0.01 0.02 0.03 0.03 0.03 0.05 0.05 0.03 0.03 0.03 0.03 0.03 0.03 0.03 0.03 0.03 0.03 0.05 0.05 0.05 0.06 0.07 0.08 0.08 0.06 0.05 0.07 0.07 0.05 0.03 0.03 0.06 0.10 0.08 0.06 0.08 0.08 0.09 0.08 0.07 0.06
0.01 0.01 0.01 0.01 0.01 0.02 0.03 0.03 0.03 0.04 0.03 0.03 0.03 0.03 0.03 0.03 0.03 0.03 0.04 0.04 0.05 0.04 0.04 0.04 0.06 0.08 0.07 0.05 0.05 0.05 0.03 0.02 0.05 0.08 0.08 0.08 0.05 0.05 0.04 0.04 0.07 0.09 0.06
0.01 0.01 0.00 0.00 0.01 0.02 0.02 0.02 0.02 0.02 0.01 0.02 0.02 0.02 0.04 0.05 0.05 0.05 0.04 0.04 0.04 0.04 0.04 0.04 0.04 0.04 0.04 0.04 0.04 0.04 0.03 0.05 0.06 0.07 0.08 0.06 0.05 0.06 0.05 0.03 0.04 0.05 0.04
0.00 0.00 0.00 0.00 0.01 0.01 0.02 0.02 0.03 0.03 0.02 0.02 0.03 0.03 0.05 0.07 0.06 0.05 0.04 0.03 0.03 0.04 0.04 0.05 0.05 0.04 0.03 0.04 0.05 0.06 0.06 0.07 0.07 0.08 0.07 0.04 0.05 0.06 0.08 0.06 0.05 0.05 0.05
0.00 0.00 0.00 0.00 0.01 0.02 0.02 0.03 0.04 0.03 0.02 0.03 0.02 0.02 0.04 0.06 0.06 0.05 0.04 0.04 0.03 0.03 0.03 0.04 0.03 0.03 0.05 0.06 0.06 0.08 0.08 0.04 0.06 0.08 0.06 0.06 0.07 0.07 0.07 0.07 0.07 0.05 0.04
0.01 0.00 0.00 0.00 0.01 0.01 0.02 0.01 0.02 0.03 0.03 0.02 0.02 0.02 0.03 0.05 0.05 0.05 0.05 0.04 0.02 0.01 0.02 0.01 0.01 0.02 0.03 0.05 0.04 0.04 0.05 0.04 0.07 0.13 0.15 0.13 0.11 0.09 0.08 0.08 0.07 0.06 0.05
0.01 0.01 0.00 0.00 0.01 0.02 0.01 0.00 0.01 0.02 0.03 0.03 0.03 0.02 0.02 0.03 0.04 0.04 0.05 0.05 0.04 0.04 0.03 0.02 0.02 0.01 0.01 0.02 0.02 0.03 0.03 0.04 0.04 0.06 0.09 0.11 0.12 0.10 0.08 0.08 0.07 0.06 0.06
0.00 0.00 0.00 0.00 0.00 0.01 0.01 0.01 0.01 0.01 0.03 0.05 0.03 0.03 0.02 0.02 0.02 0.02 0.03 0.03 0.03 0.03 0.04 0.03 0.02 0.01 0.02 0.02 0.01 0.01 0.02 0.02 0.03 0.04 0.04 0.05 0.06 0.08 0.08 0.07 0.06 0.07 0.07
0.00 0.00 0.00 0.00 0.00 0.00 0.00 0.00 0.01 0.01 0.02 0.02 0.02 0.02 0.02 0.02 0.02 0.02 0.02 0.02 0.02 0.02 0.02 0.02 0.02 0.02 0.02 0.02 0.02 0.02 0.01 0.01 0.01 0.02 0.03 0.04 0.04 0.06 0.08 0.07 0.05 0.04 0.05
0.00 0.00 0.00 0.00 0.00 0.00 0.00 0.00 0.00 0.01 0.02 0.01 0.01 0.02 0.02 0.02 0.01 0.01 0.01 0.01 0.01 0.02 0.01 0.01 0.01 0.01 0.01 0.02 0.02 0.02 0.01 0.01 0.01 0.01 0.01 0.02 0.02 0.03 0.05 0.05 0.04 0.04 0.05
0.01 0.01 0.00 0.00 0.00 0.01 0.01 0.01 0.01 0.01 0.02 0.02 0.01 0.01 0.02 0.01 0.01 0.00 0.00 0.01 0.01 0.01 0.01 0.01 0.01 0.01 0.02 0.03 0.03 0.02 0.02 0.02 0.02 0.02 0.00 0.02 0.02 0.01 0.02 0.03 0.03 0.06 0.08
0.01 0.01 0.00 0.00 0.00 0.00 0.01 0.01 0.01 0.01 0.02 0.02 0.01 0.02 0.02 0.01 0.00 0.00 0.00 0.00 0.00 0.01 0.01 0.01 0.01 0.01 0.01 0.02 0.02 0.02 0.02 0.02 0.03 0.02 0.02 0.03 0.02 0.02 0.02 0.01 0.01 0.04 0.04
0.01 0.02 0.01 0.01 0.00 0.01 0.01 0.02 0.02 0.01 0.01 0.02 0.03 0.02 0.01 0.01 0.00 0.00 0.00 0.00 0.00 0.00 0.01 0.01 0.02 0.02 0.02 0.02 0.02 0.02 0.02 0.02 0.02 0.02 0.03 0.03 0.02 0.02 0.02 0.02 0.02 0.02 0.03
0.01 0.01 0.02 0.02 0.01 0.02 0.03 0.03 0.02 0.02 0.02 0.03 0.03 0.02 0.00 0.00 0.00 0.00 0.00 0.00 0.00 0.01 0.01 0.01 0.02 0.02 0.01 0.02 0.03 0.03 0.03 0.02 0.03 0.02 0.02 0.02 0.01 0.01 0.02 0.02 0.03 0.03 0.04
0.01 0.01 0.02 0.02 0.02 0.02 0.02 0.03 0.02 0.01 0.01 0.01 0.02 0.02 0.01 0.00 0.00 0.00 0.00 0.00 0.00 0.01 0.01 0.01 0.02 0.03 0.02 0.01 0.03 0.03 0.03 0.03 0.02 0.01 0.01 0.01 0.01 0.02 0.02 0.03 0.04 0.04 0.06
0.02 0.01 0.01 0.02 0.02 0.03 0.03 0.04 0.03 0.02 0.01 0.01 0.01 0.02 0.02 0.01 0.01 0.02 0.02 0.02 0.02 0.01 0.01 0.02 0.03 0.03 0.02 0.01 0.01 0.03 0.04 0.05 0.03 0.02 0.02 0.01 0.02 0.02 0.03 0.04 0.03 0.04 0.04
0.02 0.02 0.02 0.01 0.00 0.01 0.01 0.02 0.03 0.02 0.02 0.01 0.01 0.03 0.03 0.01 0.01 0.02 0.02 0.03 0.03 0.02 0.01 0.01 0.02 0.03 0.04 0.03 0.02 0.02 0.03 0.04 0.05 0.03 0.03 0.02 0.02 0.02 0.02 0.04 0.05 0.04 0.04
0.02 0.02 0.02 0.01 0.00 0.01 0.01 0.01 0.02 0.02 0.02 0.02 0.01 0.02 0.03 0.02 0.02 0.02 0.03 0.04 0.04 0.04 0.03 0.02 0.02 0.02 0.03 0.04 0.04 0.04 0.03 0.03 0.05 0.06 0.05 0.03 0.02 0.02 0.02 0.04 0.05 0.06 0.05
0.01 0.02 0.02 0.01 0.00 0.00 0.01 0.01 0.02 0.02 0.02 0.02 0.02 0.01 0.02 0.02 0.02 0.02 0.02 0.02 0.03 0.03 0.03 0.03 0.02 0.02 0.03 0.03 0.04 0.04 0.04 0.05 0.06 0.07 0.07 0.05 0.03 0.03 0.03 0.03 0.04 0.06 0.05
MSLP
1010.16 1009.76 1009.45 1009.31 1009.39 1009.64 1010.01 1010.40 1010.73 1010.93 1011.00 1010.98 1010.92 1010.91 1011.00 1011.19 1011.48 1011.81 1012.10 1012.31 1012.41 1012.42 1012.37 1012.33 1012.34 1012.43 1012.58 1012.75 1012.90 1012.97 1012.95 1012.85 1012.70 1012.56 1012.47 1012.45 1012.49 1012.56 1012.58 1012.51 1012.32 1012.02 1011.65
1010.04 1009.70 1009.48 1009.44 1009.60 1009.91 1010.30 1010.67 1010.95 1011.11 1011.14 1011.10 1011.07 1011.11 1011.27 1011.54 1011.89 1012.24 1012.53 1012.71 1012.75 1012.70 1012.61 1012.53 1012.52 1012.59 1012.74 1012.92 1013.07 1013.14 1013.12 1013.02 1012.87 1012.74 1012.66 1012.66 1012.73 1012.82 1012.89 1012.86 1012.73 1012.49 1012.18
1009.83 1009.59 1009.48 1009.57 1009.82 1010.20 1010.61 1010.96 1011.19 1011.29 1011.29 1011.24 1011.22 1011.31 1011.52 1011.85 1012.24 1012.61 1012.88 1013.03 1013.03 1012.94 1012.81 1012.71 1012.68 1012.76 1012.90 1013.08 1013.22 1013.29 1013.27 1013.17 1013.03 1012.91 1012.86 1012.89 1012.99 1013.12 1013.22 1013.24 1013.16 1012.98 1012.75
1009.56 1009.44 1009.47 1009.69 1010.06 1010.50 1010.92 1011.26 1011.45 1011.51 1011.46 1011.39 1011.39 1011.50 1011.75 1012.10 1012.50 1012.87 1013.14 1013.26 1013.24 1013.13 1012.99 1012.88 1012.86 1012.94 1013.08 1013.25 1013.38 1013.44 1013.42 1013.32 1013.20 1013.11 1013.09 1013.15 1013.28 1013.43 1013.57 1013.63 1013.60 1013.48 1013.31
1009.27 1009.29 1009.47 1009.82 1010.29 1010.80 1011.24 1011.57 1011.72 1011.74 1011.66 1011.57 1011.56 1011.68 1011.94 1012.30 1012.69 1013.05 1013.29 1013.40 1013.38 1013.27 1013.15 1013.07 1013.07 1013.15 1013.30 1013.45 1013.57 1013.62 1013.59 1013.50 1013.40 1013.34 1013.34 1013.44 1013.59 1013.77 1013.92 1014.01 1014.02 1013.94 1013.83
1009.03 1009.17 1009.49 1009.96 1010.52 1011.07 1011.54 1011.85 1011.98 1011.97 1011.86 1011.77 1011.75 1011.86 1012.11 1012.45 1012.82 1013.15 1013.38 1013.47 1013.47 1013.39 1013.30 1013.26 1013.29 1013.40 1013.54 1013.68 1013.78 1013.81 1013.77 1013.69 1013.61 1013.57 1013.61 1013.73 1013.90 1014.09 1014.26 1014.36 1014.39 1014.34 1014.27
1008.87 1009.11 1009.53 1010.09 1010.71 1011.30 1011.77 1012.07 1012.19 1012.16 1012.06 1011.96 1011.94 1012.04 1012.27 1012.58 1012.91 1013.20 1013.41 1013.51 1013.52 1013.48 1013.45 1013.46 1013.53 1013.66 1013.80 1013.93 1014.01 1014.01 1013.96 1013.88 1013.82 1013.81 1013.87 1014.01 1014.19 1014.38 1014.54 1014.65 1014.68 1014.67 1014.63
1008.82 1009.12 1009.59 1010.19 1010.83 1011.42 1011.89 1012.19 1012.31 1012.29 1012.20 1012.12 1012.12 1012.22 1012.43 1012.70 1012.99 1013.24 1013.42 1013.52 1013.55 1013.56 1013.58 1013.65 1013.76 1013.91 1014.05 1014.17 1014.22 1014.21 1014.15 1014.07 1014.02 1014.03 1014.11 1014.26 1014.44 1014.63 1014.78 1014.87 1014.91 1014.91 1014.91
1008.87 1009.18 1009.66 1010.25 1010.86 1011.43 1011.88 1012.16 1012.30 1012.31 1012.26 1012.23 1012.26 1012.38 1012.57 1012.82 1013.07 1013.29 1013.44 1013.54 1013.59 1013.64 1013.71 1013.81 1013.96 1014.12 1014.27 1014.37 1014.40 1014.38 1014.31 1014.24 1014.21 1014.23 1014.33 1014.48 1014.66 1014.83 1014.97 1015.06 1015.10 1015.11 1015.13
1008.97 1009.27 1009.70 1010.23 1010.79 1011.30 1011.71 1011.98 1012.13 1012.19 1012.21 1012.24 1012.33 1012.48 1012.69 1012.93 1013.16 1013.34 1013.48 1013.57 1013.63 1013.71 1013.81 1013.95 1014.12 1014.30 1014.44 1014.54 1014.56 1014.53 1014.47 1014.42 1014.40 1014.44 1014.55 1014.70 1014.87 1015.03 1015.15 1015.22 1015.27 1015.30 1015.35
1009.09 1009.33 1009.70 1010.15 1010.62 1011.06 1011.41 1011.67 1011.83 1011.94 1012.03 1012.15 1012.31 1012.51 1012.76 1013.00 1013.22 1013.40 1013.52 1013.61 1013.69 1013.78 1013.91 1014.07 1014.25 1014.43 1014.58 1014.67 1014.71 1014.69 1014.65 1014.62 1014.62 1014.68 1014.79 1014.94 1015.10 1015.24 1015.35 1015.42 1015.47 1015.52 1015.60
1009.15 1009.35 1009.65 1010.01 1010.39 1010.73 1011.03 1011.26 1011.44 1011.59 1011.75 1011.94 1012.18 1012.45 1012.74 1013.01 1013.25 1013.43 1013.56 1013.66 1013.75 1013.86 1013.99 1014.16 1014.35 1014.54 1014.70 1014.80 1014.85 1014.86 1014.86 1014.86 1014.89 1014.97 1015.09 1015.23 1015.38 1015.50 1015.60 1015.67 1015.73 1015.81 1015.92
1009.12 1009.30 1009.54 1009.83 1010.12 1010.40 1010.64 1010.84 1011.02 1011.19 1011.40 1011.65 1011.95 1012.28 1012.62 1012.93 1013.20 1013.41 1013.57 1013.69 1013.80 1013.93 1014.08 1014.26 1014.45 1014.65 1014.81 1014.94 1015.03 1015.08 1015.11 1015.16 1015.22 1015.32 1015.44 1015.58 1015.71 1015.82 1015.91 1015.98 1016.06 1016.17 1016.31
1008.97 1009.16 1009.38 1009.63 1009.88 1010.10 1010.30 1010.47 1010.64 1010.83 1011.06 1011.34 1011.67 1012.03 1012.41 1012.76 1013.07 1013.33 1013.53 1013.70 1013.85 1014.00 1014.16 1014.35 1014.56 1014.76 1014.94 1015.10 1015.22 1015.32 1015.41 1015.50 1015.60 1015.71 1015.83 1015.96 1016.07 1016.17 1016.26 1016.34 1016.45 1016.58 1016.76
1008.70 1008.93 1009.18 1009.44 1009.68 1009.90 1010.08 1010.24 1010.39 1010.56 1010.78 1011.05 1011.38 1011.75 1012.14 1012.52 1012.88 1013.19 1013.45 1013.67 1013.87 1014.06 1014.25 1014.46 1014.67 1014.89 1015.10 1015.28 1015.45 1015.60 1015.74 1015.86 1015.99 1016.11 1016.23 1016.34 1016.43 1016.52 1016.61 1016.71 1016.84 1017.01 1017.22
1008.31 1008.61 1008.93 1009.25 1009.54 1009.79 1009.99 1010.16 1010.30 1010.45 1010.63 1010.86 1011.14 1011.48 1011.86 1012.25 1012.64 1013.00 1013.32 1013.61 1013.87 1014.11 1014.34 1014.57 1014.80 1015.04 1015.26 1015.48 1015.69 1015.88 1016.05 1016.21 1016.35 1016.48 1016.58 1016.67 1016.75 1016.83 1016.92 1017.04 1017.20 1017.39 1017.63
1007.84 1008.22 1008.63 1009.04 1009.42 1009.75 1010.02 1010.21 1010.36 1010.49 1010.63 1010.79 1011.01 1011.29 1011.63 1012.01 1012.41 1012.80 1013.18 1013.54 1013.86 1014.16 1014.43 1014.69 1014.94 1015.19 1015.44 1015.68 1015.92 1016.14 1016.34 1016.51 1016.66 1016.77 1016.86 1016.93 1016.99 1017.07 1017.16 1017.30 1017.48 1017.71 1017.96
1007.35 1007.79 1008.28 1008.79 1009.28 1009.71 1010.07 1010.34 1010.53 1010.66 1010.75 1010.86 1011.00 1011.21 1011.48 1011.82 1012.21 1012.62 1013.05 1013.46 1013.84 1014.19 1014.51 1014.80 1015.08 1015.34 1015.61 1015.87 1016.12 1016.36 1016.57 1016.75 1016.89 1016.99 1017.06 1017.11 1017.16 1017.22 1017.32 1017.47 1017.67 1017.92 1018.20
1006.88 1007.34 1007.88 1008.47 1009.06 1009.61 1010.08 1010.45 1010.71 1010.86 1010.95 1011.02 1011.09 1011.22 1011.42 1011.71 1012.07 1012.48 1012.93 1013.38 1013.80 1014.20 1014.56 1014.88 1015.18 1015.47 1015.75 1016.02 1016.29 1016.54 1016.76 1016.94 1017.07 1017.15 1017.20 1017.23 1017.26 1017.32 1017.42 1017.58 1017.80 1018.07 1018.35
1006.51 1006.91 1007.44 1008.06 1008.72 1009.38 1009.97 1010.45 1010.80 1011.03 1011.14 1011.19 1011.23 1011.29 1011.43 1011.66 1011.98 1012.37 1012.82 1013.28 1013.74 1014.17 1014.56 1014.92 1015.24 1015.55 1015.84 1016.13 1016.41 1016.67 1016.90 1017.08 1017.20 1017.27 1017.30 1017.32 1017.34 1017.39 1017.49 1017.66 1017.89 1018.15 1018.44
1006.28 1006.57 1007.01 1007.60 1008.28 1009.00 1009.68 1010.27 1010.74 1011.05 1011.23 1011.30 1011.33 1011.36 1011.45 1011.63 1011.90 1012.26 1012.70 1013.16 1013.63 1014.08 1014.50 1014.87 1015.22 1015.55 1015.87 1016.18 1016.48 1016.75 1016.99 1017.18 1017.30 1017.37 1017.40 1017.41 1017.42 1017.47 1017.57 1017.74 1017.96 1018.22 1018.49
1006.26 1006.36 1006.65 1007.14 1007.77 1008.49 1009.23 1009.91 1010.48 1010.89 1011.15 1011.28 1011.33 1011.36 1011.42 1011.56 1011.79 1012.12 1012.53 1012.98 1013.45 1013.90 1014.33 1014.73 1015.10 1015.45 1015.80 1016.14 1016.46 1016.76 1017.02 1017.23 1017.37 1017.45 1017.49 1017.50 1017.52 1017.56 1017.66 1017.81 1018.02 1018.26 1018.52
1006.46 1006.35 1006.44 1006.76 1007.28 1007.94 1008.68 1009.40 1010.04 1010.54 1010.88 1011.08 1011.17 1011.22 1011.28 1011.40 1011.60 1011.90 1012.27 1012.71 1013.16 1013.61 1014.05 1014.46 1014.85 1015.23 1015.60 1015.97 1016.32 1016.66 1016.95 1017.20 1017.37 1017.48 1017.54 1017.58 1017.60 1017.65 1017.73 1017.87 1018.06 1018.27 1018.50
1006.89 1006.57 1006.45 1006.56 1006.91 1007.46 1008.13 1008.83 1009.49 1010.04 1010.45 1010.71 1010.85 1010.94 1011.01 1011.12 1011.31 1011.58 1011.93 1012.33 1012.77 1013.21 1013.65 1014.06 1014.47 1014.86 1015.25 1015.65 1016.04 1016.41 1016.75 1017.04 1017.26 1017.42 1017.51 1017.57 1017.62 1017.67 1017.75 1017.87 1018.03 1018.21 1018.41
1007.51 1007.02 1006.69 1006.60 1006.76 1007.15 1007.69 1008.32 1008.95 1009.50 1009.93 1010.22 1010.40 1010.52 1010.61 1010.73 1010.91 1011.16 1011.49 1011.88 1012.30 1012.72 1013.15 1013.56 1013.96 1014.36 1014.77 1015.18 1015.60 1016.00 1016.38 1016.71 1016.98 1017.19 1017.34 1017.44 1017.51 1017.57 1017.65 1017.76 1017.89 1018.05 1018.22
1008.25 1007.65 1007.17 1006.91 1006.88 1007.09 1007.48 1007.99 1008.52 1009.01 1009.42 1009.70 1009.90 1010.02 1010.13 1010.25 1010.43 1010.68 1011.00 1011.38 1011.78 1012.19 1012.60 1012.99 1013.38 1013.77 1014.17 1014.58 1015.00 1015.42 1015.83 1016.20 1016.52 1016.78 1016.98 1017.13 1017.24 1017.33 1017.41 1017.51 1017.63 1017.77 1017.93
Thickness
5767 5768 5768 5768 5769 5769 5770 5770 5771 5771 5771 5772 5772 5773 5773 5774 5775 5775 5775 5775 5776 5778 5777 5774 5773 5773 5773 5773 5773 5773 5772 5772 5772 5773 5772 5772 5772 5771 5771 5772 5772 5772 5772
5770 5767 5766 5766 5767 5767 5768 5768 5768 5768 5768 5769 5769 5770 5770 5771 5771 5771 5771 5772 5773 5774 5773 5771 5771 5771 5771 5770 5770 5770 5770 5770 5770 5770 5770 5769 5769 5769 5769 5769 5769 5769 5769
5770 5766 5764 5764 5764 5765 5765 5765 5765 5765 5765 5766 5766 5767 5767 5768 5768 5768 5768 5768 5769 5769 5768 5768 5767 5768 5768 5768 5768 5767 5767 5767 5768 5768 5768 5767 5767 5767 5766 5766 5766 5766 5766
5769 5765 5762 5761 5761 5761 5762 5762 5762 5762 5763 5763 5763 5763 5764 5764 5764 5764 5765 5765 5765 5765 5764 5764 5764 5764 5764 5765 5764 5764 5765 5765 5765 5766 5766 5765 5764 5764 5764 5763 5763 5763 5763
5767 5762 5759 5759 5758 5758 5758 5759 5759 5759 5759 5760 5760 5760 5760 5760 5761 5761 5761 5761 5761 5761 5760 5760 5760 5761 5761 5761 5761 5762 5762 5762 5762 5763 5762 5761 5761 5760 5760 5760 5760 5760 5760
5763 5760 5757 5757 5756 5756 5756 5756 5756 5756 5756 5756 5756 5756 5756 5756 5757 5757 5757 5757 5757 5757 5757 5757 5757 5757 5757 5758 5758 5758 5759 5759 5759 5759 5759 5758 5757 5757 5756 5756 5756 5756 5756
5762 5759 5756 5755 5754 5753 5753 5753 5752 5752 5752 5752 5752 5752 5753 5753 5753 5753 5753 5753 5753 5753 5753 5753 5753 5753 5754 5754 5755 5755 5755 5756 5756 5756 5755 5754 5754 5754 5754 5753 5753 5752 5752
5762 5758 5755 5753 5752 5751 5750 5750 5749 5749 5749 5749 5749 5749 5749 5749 5749 5749 5749 5749 5749 5749 5749 5749 5749 5750 5750 5750 5751 5752 5752 5752 5753 5753 5751 5751 5751 5751 5750 5750 5749 5749 5749
5761 5758 5755 5752 5750 5749 5748 5747 5747 5746 5746 5745 5745 5745 5745 5745 5745 5745 5744 5745 5745 5745 5745 5745 5745 5746 5746 5747 5748 5748 5748 5748 5749 5749 5748 5747 5747 5747 5747 5746 5746 5746 5745
5758 5757 5756 5753 5750 5748 5746 5745 5744 5743 5743 5743 5742 5742 5742 5742 5742 5741 5741 5741 5741 5741 5741 5742 5742 5742 5743 5743 5744 5745 5745 5745 5745 5745 5743 5743 5743 5743 5742 5742 5742 5742 5741
5754 5755 5755 5753 5751 5748 5745 5743 5742 5741 5740 5740 5740 5739 5739 5739 5739 5738 5738 5737 5737 5738 5738 5738 5739 5739 5739 5740 5741 5742 5742 5741 5741 5740 5739 5739 5739 5738 5738 5738 5738 5737 5737
5749 5752 5753 5751 5750 5748 5745 5741 5741 5740 5739 5738 5738 5738 5737 5737 5736 5735 5734 5734 5734 5734 5735 5735 5736 5736 5737 5737 5737 5738 5738 5738 5737 5735 5734 5734 5734 5734 5733 5733 5733 5733 5734
5748 5749 5750 5749 5748 5746 5744 5741 5740 5739 5738 5737 5736 5736 5734 5734 5733 5732 5731 5731 5731 5731 5732 5732 5733 5734 5734 5734 5734 5734 5733 5733 5732 5730 5729 5729 5729 5729 5729 5728 5728 5729 5729
5747 5747 5747 5747 5746 5744 5742 5740 5739 5737 5736 5735 5734 5733 5732 5731 5730 5729 5729 5729 5728 5728 5729 5729 5730 5730 5731 5731 5730 5729 5729 5728 5726 5724 5724 5724 5724 5724 5724 5723 5723 5724 5724
5744 5744 5745 5745 5743 5741 5740 5738 5737 5735 5734 5732 5732 5731 5730 5728 5727 5726 5726 5726 5725 5725 5725 5725 5726 5725 5725 5725 5725 5725 5724 5723 5721 5720 5719 5719 5719 5719 5718 5718 5718 5719 5719
5742 5742 5743 5742 5742 5739 5737 5736 5734 5733 5731 5730 5729 5728 5727 5726 5725 5723 5722 5722 5722 5721 5721 5721 5721 5720 5720 5720 5719 5719 5718 5717 5717 5716 5714 5713 5713 5713 5713 5713 5713 5714 5714
5742 5742 5740 5740 5739 5737 5735 5734 5732 5730 5728 5727 5725 5724 5724 5722 5721 5720 5718 5717 5717 5717 5717 5716 5716 5715 5714 5714 5713 5713 5713 5712 5711 5711 5710 5708 5708 5707 5707 5707 5707 5708 5709
5742 5740 5738 5738 5736 5734 5732 5731 5729 5727 5725 5723 5722 5720 5720 5718 5717 5715 5714 5713 5712 5712 5711 5710 5709 5708 5707 5707 5707 5708 5708 5707 5706 5706 5706 5705 5703 5702 5701 5702 5702 5703 5703
5739 5738 5735 5734 5732 5730 5729 5727 5725 5723 5721 5719 5717 5716 5715 5714 5712 5711 5709 5708 5708 5707 5705 5705 5703 5702 5701 5701 5701 5702 5702 5702 5701 5701 5701 5700 5698 5697 5697 5696 5697 5698 5698
5737 5736 5733 5731 5729 5726 5725 5723 5720 5718 5716 5714 5712 5711 5709 5708 5707 5705 5704 5703 5702 5701 5699 5699 5697 5697 5696 5696 5697 5697 5697 5697 5697 5696 5695 5694 5694 5693 5692 5692 5692 5692 5692
5732 5731 5728 5726 5725 5722 5719 5715 5713 5710 5710 5708 5707 5706 5705 5703 5702 5700 5699 5698 5697 5695 5693 5693 5691 5690 5690 5691 5689 5687 5689 5692 5691 5691 5690 5689 5689 5688 5688 5688 5687 5687 5687
5726 5726 5725 5723 5721 5719 5716 5714 5711 5708 5706 5705 5703 5702 5700 5698 5697 5696 5694 5692 5691 5689 5688 5687 5685 5683 5683 5685 5681 5677 5675 5677 5681 5686 5685 5684 5684 5684 5684 5683 5683 5683 5683
5722 5721 5721 5720 5717 5715 5713 5710 5707 5704 5701 5698 5697 5696 5695 5694 5692 5690 5689 5687 5685 5684 5682 5681 5680 5677 5675 5677 5678 5674 5668 5666 5670 5675 5677 5678 5678 5678 5678 5678 5678 5678 5678
5719 5719 5718 5717 5715 5713 5710 5706 5701 5696 5692 5692 5692 5691 5690 5689 5687 5685 5683 5682 5680 5679 5677 5676 5675 5674 5672 5669 5671 5672 5671 5669 5664 5663 5667 5671 5672 5672 5672 5673 5673 5673 5673
5716 5715 5714 5713 5712 5710 5707 5703 5698 5694 5692 5690 5689 5686 5684 5683 5681 5679 5677 5676 5675 5673 5672 5671 5670 5669 5667 5665 5664 5665 5665 5665 5665 5660 5657 5660 5663 5665 5667 5667 5667 5667 5667
5711 5710 5710 5708 5706 5706 5703 5700 5696 5691 5689 5686 5683 5680 5678 5677 5676 5674 5672 5671 5669 5668 5667 5666 5665 5664 5663 5662 5661 5661 5659 5657 5656 5656 5654 5654 5654 5658 5661 5662 5661 5661 5661